Home > Weather > Rio Grande > Past weeks

Flag for Brazil Weather for the Past 2 Weeks in Rio Grande, Rio Grande do Sul, Brazil

Now
81 °F

Sunny.


Feels Like: 85 °F
Forecast: N/A
Wind: 8 mph from Southeast

Location: Pelotas Airport

Current Time: Feb 9, 2016 at 9:21:25 PM

Latest Report: Feb 9, 2016 at 8:00 PM


Visibility: 10 mi

Pressure: 29.89 "Hg

Humidity: 74%

Dew point: 72 °F

Location of Rio GrandeLocation

Historic Weather in Rio Grande — Graph

°F

Rio Grande Temperature Yesterday

Maximum temperature yesterday: 99 °F (at 1:00 PM)
Minimum temperature yesterday: 73 °F (at 2:00 AM)
Average temperature yesterday: 82 °F

High & Low Weather Summary for the Past Weeks

 TemperatureHumidityPressure
High99 °F (Feb 8, 1:00 PM)100% (Jan 29, 4:00 AM)30.09 "Hg (Jan 29, 4:00 AM)
Low36 °F (Jan 29, 6:00 PM)32% (Feb 2, 4:00 AM)29.65 "Hg (Jan 25, 7:00 PM)
Average75 °F77%29.94 "Hg
* Reported Jan 25 7:00 PM — Feb 9 7:00 PM, Rio Grande, Weather by CustomWeather, © 2016

Note: Actual official high and low records may vary slightly from our data, if they occured in-between our weather recording intervals... More about our weather records

Advertising

Rio Grande Weather History for the Previous 24 Hours

 ConditionsComfort  
Time TempWeatherWind HumidityBarometerVisibility
7:00 PM
Tue, Feb 9
82 °FPassing clouds.10 mph70%29.86 "HgN/A
6:00 PM82 °FPartly sunny.9 mph74%29.83 "HgN/A
5:00 PM84 °FPartly sunny.13 mph70%29.83 "HgN/A
4:00 PM86 °FPartly sunny.14 mph70%29.83 "HgN/A
3:00 PM88 °FPartly sunny.14 mph62%29.80 "HgN/A
2:00 PM84 °FPartly sunny.15 mph70%29.83 "HgN/A
1:00 PM88 °FPartly sunny.17 mph62%29.80 "HgN/A
12:00 PM86 °FScattered clouds.16 mph66%29.80 "HgN/A
11:00 AM88 °FScattered clouds.15 mph66%29.80 "HgN/A
10:00 AM84 °FSunny.13 mph74%29.80 "Hg10 mi
9:00 AM82 °FSunny.6 mph79%29.77 "Hg10 mi
8:00 AM77 °FSunny.6 mph94%29.77 "Hg10 mi
7:00 AM75 °FClear.5 mph94%29.74 "Hg10 mi
6:00 AM75 °FClear.5 mph94%29.74 "Hg10 mi
5:00 AM75 °FClear.3 mph100%29.74 "Hg10 mi
4:00 AM75 °FPassing clouds.3 mph94%29.74 "Hg5 mi
3:00 AM75 °FPassing clouds.2 mph94%29.77 "Hg5 mi
2:00 AM75 °FLight rain. Fog.3 mph100%29.83 "Hg3 mi
1:00 AM79 °FThunderstorms. Fog.1 mph100%N/A3 mi
12:00 AM77 °FThunderstorms. Passing clouds.3 mph100%29.83 "HgN/A
11:00 PM
Mon, Feb 8
77 °FThunderstorms. Mostly cloudy.3 mph100%N/AN/A
10:00 PM77 °FLight rain. Overcast.3 mph94%29.83 "HgN/A
9:00 PM77 °FLight rain. Overcast.5 mph94%29.83 "Hg6 mi
Weather by CustomWeather, © 2016

See weather overviewHow to use our weather pages